QPF
0.00 0.00 0.00 0.00 0.00 0.00 0.00 0.00 0.00 0.00 0.00 0.00 0.00 0.00 0.00 0.00 0.00 0.00 0.00 0.00 0.00 0.00 0.00 0.00 0.00 0.00 0.00 0.00 0.00 0.01 0.01 0.01 0.02 0.00 0.00 0.00 0.00 0.00 0.00 0.00 0.01 0.01 0.01
0.00 0.00 0.00 0.00 0.00 0.00 0.00 0.00 0.00 0.00 0.00 0.00 0.00 0.00 0.00 0.00 0.00 0.00 0.00 0.00 0.00 0.00 0.00 0.00 0.00 0.00 0.00 0.00 0.00 0.00 0.00 0.01 0.01 0.00 0.00 0.00 0.00 0.00 0.00 0.00 0.00 0.01 0.01
0.00 0.00 0.00 0.00 0.00 0.00 0.00 0.00 0.00 0.00 0.00 0.00 0.00 0.00 0.00 0.00 0.00 0.00 0.00 0.00 0.00 0.00 0.00 0.01 0.02 0.03 0.01 0.00 0.00 0.00 0.00 0.00 0.00 0.00 0.00 0.00 0.00 0.00 0.00 0.00 0.00 0.00 0.00
0.00 0.00 0.00 0.00 0.00 0.00 0.00 0.00 0.00 0.00 0.00 0.00 0.00 0.00 0.00 0.00 0.00 0.00 0.00 0.00 0.00 0.00 0.00 0.01 0.01 0.01 0.00 0.00 0.00 0.00 0.00 0.00 0.00 0.00 0.00 0.00 0.00 0.00 0.00 0.00 0.00 0.00 0.00
0.00 0.00 0.00 0.00 0.00 0.00 0.00 0.00 0.00 0.00 0.00 0.00 0.00 0.00 0.00 0.00 0.00 0.00 0.00 0.00 0.00 0.00 0.00 0.00 0.00 0.00 0.00 0.00 0.00 0.00 0.00 0.00 0.00 0.00 0.00 0.00 0.00 0.00 0.00 0.00 0.00 0.00 0.00
0.00 0.00 0.00 0.00 0.00 0.00 0.00 0.00 0.00 0.00 0.00 0.00 0.00 0.00 0.00 0.00 0.00 0.00 0.00 0.00 0.00 0.00 0.00 0.00 0.00 0.00 0.00 0.00 0.00 0.00 0.00 0.00 0.00 0.00 0.00 0.00 0.00 0.00 0.00 0.00 0.00 0.00 0.00
0.00 0.00 0.00 0.00 0.00 0.00 0.00 0.00 0.00 0.00 0.00 0.00 0.00 0.00 0.00 0.00 0.00 0.00 0.00 0.00 0.00 0.00 0.00 0.00 0.00 0.00 0.00 0.00 0.00 0.00 0.00 0.00 0.00 0.00 0.00 0.00 0.00 0.00 0.00 0.00 0.00 0.00 0.00
0.00 0.00 0.00 0.00 0.00 0.00 0.00 0.00 0.00 0.00 0.00 0.00 0.00 0.00 0.00 0.00 0.00 0.00 0.00 0.00 0.00 0.00 0.00 0.00 0.00 0.00 0.00 0.00 0.00 0.00 0.00 0.00 0.00 0.00 0.00 0.00 0.00 0.00 0.00 0.00 0.00 0.00 0.00
0.00 0.00 0.00 0.00 0.00 0.00 0.00 0.00 0.00 0.00 0.00 0.00 0.00 0.00 0.00 0.00 0.00 0.00 0.00 0.00 0.00 0.00 0.00 0.00 0.00 0.00 0.00 0.00 0.00 0.00 0.00 0.00 0.00 0.00 0.00 0.00 0.00 0.00 0.00 0.00 0.00 0.00 0.00
0.00 0.00 0.00 0.00 0.00 0.00 0.00 0.00 0.00 0.00 0.00 0.00 0.00 0.00 0.00 0.00 0.00 0.00 0.00 0.00 0.00 0.00 0.00 0.00 0.00 0.00 0.00 0.00 0.00 0.00 0.00 0.00 0.00 0.00 0.00 0.00 0.00 0.00 0.00 0.00 0.00 0.00 0.00
0.00 0.00 0.00 0.00 0.00 0.00 0.00 0.00 0.00 0.00 0.00 0.00 0.00 0.00 0.00 0.00 0.00 0.00 0.00 0.00 0.00 0.00 0.00 0.00 0.00 0.00 0.00 0.00 0.00 0.00 0.00 0.00 0.00 0.00 0.00 0.00 0.00 0.00 0.00 0.00 0.00 0.00 0.00
0.00 0.00 0.00 0.00 0.00 0.00 0.00 0.00 0.00 0.00 0.00 0.00 0.00 0.00 0.00 0.00 0.00 0.00 0.00 0.00 0.00 0.00 0.00 0.00 0.00 0.00 0.00 0.00 0.00 0.00 0.00 0.00 0.00 0.00 0.00 0.00 0.00 0.00 0.00 0.00 0.00 0.00 0.00
0.00 0.00 0.00 0.00 0.00 0.00 0.00 0.00 0.00 0.00 0.00 0.00 0.00 0.00 0.00 0.00 0.00 0.00 0.00 0.00 0.00 0.00 0.00 0.00 0.00 0.00 0.00 0.00 0.00 0.00 0.00 0.00 0.00 0.00 0.00 0.00 0.00 0.00 0.00 0.00 0.00 0.00 0.00
0.00 0.00 0.00 0.00 0.00 0.00 0.00 0.00 0.00 0.00 0.00 0.00 0.00 0.00 0.00 0.00 0.00 0.00 0.00 0.00 0.00 0.00 0.00 0.00 0.00 0.00 0.00 0.00 0.00 0.00 0.00 0.00 0.00 0.00 0.00 0.00 0.00 0.00 0.00 0.00 0.00 0.00 0.00
0.00 0.00 0.00 0.00 0.00 0.00 0.00 0.00 0.00 0.00 0.00 0.00 0.00 0.00 0.00 0.00 0.00 0.00 0.00 0.00 0.00 0.00 0.00 0.00 0.00 0.00 0.00 0.00 0.00 0.00 0.00 0.00 0.00 0.00 0.00 0.00 0.00 0.00 0.00 0.00 0.00 0.00 0.00
0.00 0.00 0.00 0.00 0.00 0.00 0.00 0.00 0.00 0.00 0.00 0.00 0.00 0.00 0.00 0.00 0.00 0.00 0.00 0.00 0.00 0.00 0.00 0.00 0.00 0.00 0.00 0.00 0.00 0.00 0.00 0.00 0.00 0.00 0.00 0.00 0.00 0.00 0.00 0.00 0.00 0.00 0.00
0.00 0.00 0.00 0.00 0.00 0.00 0.00 0.00 0.00 0.00 0.00 0.00 0.00 0.00 0.00 0.00 0.00 0.00 0.00 0.00 0.00 0.00 0.00 0.00 0.00 0.00 0.00 0.00 0.00 0.00 0.00 0.00 0.00 0.00 0.00 0.00 0.00 0.00 0.00 0.00 0.00 0.00 0.00
0.00 0.00 0.00 0.00 0.00 0.00 0.00 0.00 0.00 0.00 0.00 0.00 0.00 0.00 0.00 0.00 0.00 0.00 0.00 0.00 0.00 0.00 0.00 0.00 0.00 0.00 0.00 0.00 0.00 0.00 0.00 0.00 0.00 0.00 0.00 0.00 0.00 0.00 0.00 0.00 0.00 0.00 0.00
0.00 0.00 0.00 0.00 0.00 0.00 0.00 0.00 0.00 0.00 0.00 0.00 0.00 0.00 0.00 0.00 0.00 0.00 0.00 0.00 0.00 0.00 0.00 0.00 0.00 0.00 0.00 0.00 0.00 0.00 0.00 0.00 0.00 0.00 0.00 0.00 0.00 0.00 0.00 0.00 0.00 0.00 0.00
0.00 0.00 0.00 0.00 0.00 0.00 0.00 0.00 0.00 0.00 0.00 0.00 0.00 0.00 0.00 0.00 0.00 0.00 0.00 0.00 0.00 0.00 0.00 0.00 0.00 0.00 0.00 0.00 0.00 0.00 0.00 0.00 0.00 0.00 0.00 0.00 0.00 0.00 0.00 0.00 0.00 0.00 0.00
0.00 0.00 0.00 0.00 0.00 0.00 0.00 0.00 0.00 0.00 0.00 0.00 0.00 0.00 0.00 0.00 0.00 0.00 0.00 0.00 0.00 0.00 0.00 0.00 0.00 0.00 0.00 0.00 0.00 0.00 0.00 0.00 0.00 0.00 0.00 0.00 0.00 0.00 0.00 0.00 0.00 0.00 0.00
0.00 0.00 0.00 0.00 0.00 0.00 0.00 0.00 0.00 0.00 0.00 0.00 0.00 0.00 0.00 0.00 0.00 0.00 0.00 0.00 0.00 0.00 0.00 0.00 0.00 0.00 0.00 0.00 0.00 0.00 0.00 0.00 0.00 0.00 0.00 0.00 0.00 0.00 0.00 0.00 0.00 0.00 0.00
0.00 0.00 0.00 0.00 0.00 0.00 0.00 0.00 0.00 0.00 0.00 0.00 0.00 0.00 0.00 0.00 0.00 0.00 0.00 0.00 0.00 0.00 0.00 0.00 0.00 0.00 0.00 0.00 0.00 0.00 0.00 0.00 0.00 0.00 0.00 0.00 0.00 0.00 0.00 0.00 0.00 0.00 0.00
0.00 0.00 0.00 0.00 0.00 0.00 0.00 0.00 0.00 0.00 0.00 0.00 0.00 0.00 0.00 0.00 0.00 0.00 0.00 0.00 0.00 0.00 0.00 0.00 0.00 0.00 0.00 0.00 0.00 0.00 0.00 0.00 0.00 0.00 0.00 0.00 0.00 0.00 0.00 0.00 0.00 0.00 0.00
0.00 0.00 0.00 0.00 0.00 0.00 0.00 0.00 0.00 0.00 0.00 0.00 0.00 0.00 0.00 0.00 0.00 0.00 0.00 0.00 0.00 0.00 0.00 0.00 0.00 0.00 0.00 0.00 0.00 0.00 0.00 0.00 0.00 0.00 0.00 0.00 0.00 0.00 0.00 0.00 0.00 0.00 0.00
0.00 0.00 0.00 0.00 0.00 0.00 0.00 0.00 0.00 0.00 0.00 0.00 0.00 0.00 0.00 0.00 0.00 0.00 0.00 0.00 0.00 0.00 0.00 0.00 0.00 0.00 0.00 0.00 0.00 0.00 0.00 0.00 0.00 0.00 0.00 0.00 0.00 0.00 0.00 0.00 0.00 0.00 0.00
MSLP
1017.56 1017.91 1018.26 1018.69 1018.98 1019.08 1019.10 1019.21 1019.17 1019.11 1018.99 1018.86 1018.82 1018.72 1018.60 1018.34 1017.98 1017.82 1017.54 1017.17 1017.01 1016.69 1016.33 1016.11 1015.64 1015.42 1015.16 1014.87 1014.79 1014.67 1014.48 1014.49 1014.25 1012.86 1012.64 1012.13 1011.84 1011.56 1011.21 1011.12 1010.96 1010.59 1010.31
1017.71 1018.22 1018.58 1018.82 1018.95 1018.94 1019.10 1019.29 1019.43 1019.34 1019.07 1019.02 1018.90 1018.71 1018.37 1018.14 1017.81 1017.51 1017.20 1016.80 1016.66 1016.27 1015.76 1015.72 1015.30 1015.01 1015.02 1014.71 1014.49 1014.24 1014.02 1013.79 1013.71 1012.69 1012.44 1012.01 1011.68 1011.63 1011.06 1010.63 1010.41 1010.11 1009.73
1017.91 1018.30 1018.73 1018.83 1018.91 1019.03 1019.21 1019.28 1019.31 1019.40 1019.35 1019.08 1018.80 1018.58 1018.34 1018.01 1017.78 1017.52 1017.27 1016.90 1016.60 1016.37 1015.91 1015.56 1015.02 1014.90 1014.63 1014.44 1014.25 1013.99 1013.76 1013.26 1013.17 1012.55 1011.72 1011.70 1011.51 1011.29 1010.86 1010.27 1010.16 1009.78 1009.47
1017.92 1018.37 1018.75 1019.05 1019.05 1019.28 1019.56 1019.52 1019.39 1019.39 1019.21 1018.91 1018.66 1018.46 1018.29 1018.19 1017.91 1017.55 1017.31 1017.07 1016.59 1016.14 1015.79 1015.33 1015.03 1014.79 1014.35 1014.13 1013.96 1013.66 1013.25 1012.97 1012.72 1012.21 1011.54 1011.49 1011.21 1010.78 1010.60 1009.90 1009.17 1009.38 1009.44
1018.02 1018.60 1018.98 1019.25 1019.40 1019.57 1019.56 1019.43 1019.28 1019.35 1019.12 1018.79 1018.61 1018.54 1018.43 1018.15 1017.85 1017.63 1017.27 1016.95 1016.40 1015.84 1015.43 1015.00 1014.71 1014.51 1014.06 1013.72 1013.57 1013.24 1013.02 1012.71 1012.41 1011.86 1011.25 1011.12 1010.80 1010.69 1010.62 1010.03 1009.83 1009.32 1008.78
1018.57 1018.96 1019.17 1019.39 1019.36 1019.34 1019.33 1019.35 1019.37 1019.40 1019.08 1018.83 1018.68 1018.56 1018.35 1017.95 1017.67 1017.32 1017.11 1016.52 1016.24 1015.70 1015.16 1014.77 1014.42 1013.99 1013.68 1013.42 1013.12 1012.81 1012.53 1012.47 1012.07 1011.64 1010.90 1010.49 1010.41 1010.41 1010.36 1010.37 1010.06 1009.55 1009.03
1018.71 1018.96 1018.98 1018.89 1018.94 1019.14 1019.32 1019.39 1019.52 1019.33 1019.01 1018.86 1018.55 1018.13 1017.82 1017.68 1017.43 1017.21 1016.91 1016.60 1016.18 1015.49 1014.93 1014.25 1013.79 1013.25 1012.93 1012.54 1012.23 1011.96 1011.72 1011.53 1011.41 1011.25 1010.60 1010.06 1009.95 1010.02 1010.20 1010.02 1009.62 1009.40 1009.13
1018.50 1018.45 1018.68 1018.92 1019.08 1019.19 1019.40 1019.53 1019.32 1019.13 1019.02 1018.65 1018.16 1017.89 1017.76 1017.56 1017.19 1016.71 1016.38 1016.18 1015.84 1015.21 1014.81 1014.13 1013.52 1012.79 1012.31 1011.86 1011.35 1011.07 1010.75 1010.62 1010.51 1010.35 1010.07 1009.50 1009.41 1009.51 1009.58 1009.28 1009.05 1008.78 1008.94
1017.79 1018.55 1018.99 1019.18 1019.15 1019.44 1019.66 1019.63 1019.18 1018.88 1018.60 1018.17 1017.87 1017.81 1017.51 1017.12 1016.80 1016.41 1015.88 1015.53 1015.05 1014.73 1014.27 1013.73 1013.22 1012.42 1011.86 1011.44 1010.84 1010.32 1010.02 1009.78 1009.58 1009.38 1009.14 1009.00 1008.95 1008.88 1008.84 1008.80 1008.55 1008.61 1008.73
1018.41 1018.52 1018.65 1019.06 1019.31 1019.63 1019.75 1019.38 1018.84 1018.42 1018.22 1017.96 1017.92 1017.60 1017.44 1017.13 1016.74 1016.31 1015.76 1015.23 1014.54 1014.25 1013.64 1013.09 1012.82 1012.16 1011.37 1010.81 1010.31 1009.79 1009.26 1008.98 1008.87 1008.86 1008.78 1008.63 1008.53 1008.35 1008.16 1008.06 1007.76 1007.84 1008.41
1018.36 1018.52 1018.67 1019.18 1019.66 1019.69 1019.48 1019.15 1018.82 1018.43 1018.14 1017.79 1017.63 1017.49 1017.32 1016.90 1016.31 1015.96 1015.55 1014.97 1014.45 1013.88 1013.16 1012.53 1012.16 1011.65 1010.97 1010.27 1009.69 1009.20 1008.74 1008.55 1008.56 1008.56 1008.41 1008.38 1008.24 1008.08 1007.83 1007.51 1007.16 1007.31 1007.79
1018.56 1018.79 1019.16 1019.60 1019.52 1019.29 1019.15 1018.94 1018.47 1018.09 1017.91 1017.83 1017.48 1017.13 1016.89 1016.30 1015.91 1015.38 1015.04 1014.60 1014.24 1013.71 1012.83 1012.16 1011.60 1011.01 1010.38 1009.67 1009.12 1008.70 1008.50 1008.36 1008.36 1008.30 1008.27 1008.25 1008.10 1007.95 1007.77 1007.51 1007.35 1007.48 1007.76
1018.85 1019.20 1019.50 1019.48 1019.37 1019.20 1019.04 1018.53 1018.26 1018.13 1017.88 1017.45 1017.05 1016.54 1016.06 1015.83 1015.64 1015.02 1014.65 1014.09 1013.69 1013.16 1012.44 1011.67 1011.05 1010.50 1009.96 1009.34 1008.81 1008.53 1008.33 1008.29 1008.34 1008.39 1008.36 1008.39 1008.34 1008.32 1008.05 1007.66 1007.88 1008.17 1008.55
1018.92 1019.22 1019.17 1019.28 1019.36 1018.98 1018.59 1018.52 1018.59 1018.44 1018.12 1017.72 1017.16 1016.56 1016.01 1015.48 1015.23 1014.69 1014.28 1013.58 1012.95 1012.35 1011.63 1010.96 1010.51 1010.09 1009.74 1009.33 1008.84 1008.65 1008.61 1008.58 1008.48 1008.50 1008.56 1008.58 1008.59 1008.46 1008.23 1008.36 1008.78 1009.10 1009.38
1018.67 1018.82 1019.04 1019.09 1018.77 1018.68 1018.83 1018.75 1018.71 1018.56 1018.37 1017.60 1017.07 1016.56 1015.97 1015.34 1015.13 1014.62 1014.05 1013.39 1012.65 1011.93 1011.11 1010.51 1010.06 1009.75 1009.53 1009.23 1009.03 1008.96 1009.02 1008.90 1008.76 1008.78 1008.80 1008.91 1008.95 1008.82 1009.04 1009.33 1009.49 1009.66 1010.02
1018.49 1018.74 1018.81 1018.87 1019.00 1019.07 1019.06 1018.81 1018.59 1017.99 1017.69 1017.48 1016.73 1016.17 1015.63 1015.29 1014.86 1014.23 1013.72 1013.05 1012.27 1011.29 1010.72 1010.32 1009.95 1009.86 1009.70 1009.37 1009.25 1009.32 1009.26 1009.19 1009.14 1009.04 1009.11 1009.23 1009.28 1009.53 1009.85 1010.06 1010.19 1010.39 1010.83
1018.10 1018.31 1018.66 1018.87 1019.08 1019.30 1019.36 1019.29 1019.12 1017.88 1017.44 1017.14 1016.70 1015.98 1015.40 1014.97 1014.53 1013.98 1013.34 1012.65 1011.90 1011.33 1010.87 1010.50 1010.21 1010.10 1009.76 1009.46 1009.39 1009.47 1009.55 1009.55 1009.49 1009.42 1009.53 1009.64 1009.95 1010.34 1010.54 1010.83 1011.06 1011.25 1011.75
1017.81 1017.89 1018.33 1018.69 1019.00 1019.16 1019.22 1019.01 1018.76 1018.27 1017.90 1016.93 1016.33 1016.08 1015.11 1014.65 1014.12 1013.57 1013.10 1012.48 1011.94 1011.40 1011.07 1010.81 1010.50 1010.19 1009.91 1009.65 1009.49 1009.56 1009.71 1009.80 1009.81 1009.84 1009.90 1010.19 1010.59 1010.90 1011.23 1011.55 1011.90 1012.18 1012.64
1017.38 1017.53 1018.04 1018.31 1018.74 1018.82 1018.79 1018.81 1018.57 1018.12 1017.68 1017.30 1016.69 1015.64 1015.08 1014.53 1013.75 1013.25 1012.87 1012.69 1012.14 1011.55 1011.08 1010.80 1010.46 1010.26 1010.01 1009.75 1009.60 1009.67 1009.83 1010.02 1010.16 1010.16 1010.32 1010.69 1011.10 1011.43 1011.91 1012.30 1012.74 1013.16 1013.55
1016.75 1017.07 1017.53 1017.82 1017.98 1018.16 1018.41 1018.34 1018.26 1018.30 1017.83 1017.13 1016.58 1015.88 1015.08 1014.53 1013.57 1012.94 1012.65 1012.33 1011.93 1011.48 1011.01 1010.68 1010.31 1010.24 1009.99 1009.79 1009.67 1009.75 1009.95 1010.23 1010.42 1010.48 1010.74 1011.13 1011.51 1011.93 1012.51 1013.07 1013.56 1014.06 1014.69
1015.87 1016.31 1016.70 1017.05 1017.34 1017.44 1017.59 1017.82 1017.65 1017.81 1017.36 1016.96 1016.42 1015.66 1015.12 1014.51 1013.57 1012.96 1012.60 1012.18 1011.61 1011.22 1010.88 1010.51 1010.17 1010.00 1009.81 1009.68 1009.69 1009.81 1010.01 1010.32 1010.58 1010.78 1011.05 1011.44 1011.94 1012.51 1013.09 1013.65 1014.24 1014.93 1015.50
1015.44 1015.81 1016.01 1016.11 1016.30 1016.69 1016.80 1017.25 1017.32 1017.32 1017.01 1016.76 1016.24 1015.48 1014.79 1014.08 1013.39 1012.74 1012.32 1011.90 1011.30 1010.89 1010.65 1010.38 1009.97 1009.73 1009.60 1009.53 1009.55 1009.71 1009.95 1010.27 1010.65 1010.85 1011.32 1011.82 1012.34 1012.98 1013.57 1014.21 1014.90 1015.56 1016.22
1014.84 1015.11 1015.57 1015.58 1015.45 1015.70 1016.00 1016.39 1016.72 1016.73 1016.55 1016.31 1015.88 1015.23 1014.52 1013.91 1013.24 1012.56 1011.93 1011.39 1010.93 1010.52 1010.19 1010.00 1009.72 1009.47 1009.32 1009.35 1009.32 1009.47 1009.72 1010.01 1010.42 1010.76 1011.32 1012.01 1012.68 1013.30 1013.90 1014.53 1015.26 1015.94 1016.69
1014.21 1014.39 1014.41 1014.42 1014.59 1015.10 1015.47 1015.89 1016.06 1016.09 1016.05 1015.83 1015.40 1014.86 1014.30 1013.72 1013.06 1012.30 1011.72 1010.98 1010.44 1010.05 1009.65 1009.47 1009.35 1009.21 1009.08 1009.10 1009.12 1009.23 1009.46 1009.76 1010.24 1010.79 1011.23 1011.96 1012.79 1013.53 1014.15 1014.76 1015.48 1016.22 1017.15
1013.56 1013.58 1013.67 1013.89 1014.25 1014.61 1015.01 1015.35 1015.50 1015.47 1015.37 1015.15 1014.82 1014.46 1013.80 1013.39 1012.85 1012.05 1011.55 1010.80 1010.00 1009.60 1009.17 1008.94 1008.91 1008.85 1008.83 1008.88 1008.93 1009.08 1009.32 1009.66 1010.13 1010.78 1011.35 1011.94 1012.73 1013.55 1014.26 1014.96 1015.78 1016.70 1017.54
1013.64 1013.45 1013.57 1013.88 1014.06 1014.27 1014.50 1014.73 1014.81 1014.80 1014.75 1014.50 1014.20 1013.90 1013.50 1013.13 1012.63 1011.99 1011.21 1010.69 1010.03 1009.25 1008.80 1008.46 1008.43 1008.42 1008.47 1008.53 1008.75 1008.98 1009.24 1009.63 1010.13 1010.74 1011.35 1011.95 1012.77 1013.69 1014.44 1015.18 1016.00 1016.86 1017.81
Thickness
5588 5581 5574 5566 5559 5554 5549 5543 5538 5533 5526 5520 5513 5504 5495 5486 5475 5464 5451 5442 5432 5427 5421 5412 5409 5402 5397 5393 5387 5385 5385 5382 5379 5404 5405 5411 5413 5416 5423 5430 5441 5453 5466
5575 5566 5559 5554 5548 5542 5535 5530 5522 5516 5511 5502 5494 5486 5477 5466 5455 5444 5435 5426 5417 5412 5408 5396 5391 5386 5380 5376 5374 5375 5373 5373 5372 5387 5390 5397 5398 5399 5408 5418 5429 5439 5450
5559 5553 5547 5542 5535 5529 5524 5517 5509 5500 5491 5484 5476 5467 5457 5448 5437 5426 5416 5411 5405 5395 5386 5380 5379 5373 5368 5365 5364 5364 5364 5365 5364 5373 5382 5384 5386 5389 5397 5406 5413 5426 5435
5548 5541 5535 5527 5520 5514 5505 5498 5492 5484 5476 5467 5458 5448 5438 5427 5417 5410 5404 5397 5391 5382 5375 5371 5367 5360 5356 5356 5355 5356 5358 5358 5358 5363 5372 5370 5375 5381 5386 5397 5409 5413 5418
5535 5527 5518 5509 5502 5496 5489 5484 5477 5467 5459 5451 5442 5430 5418 5409 5404 5397 5391 5385 5379 5373 5368 5364 5359 5354 5353 5352 5351 5351 5349 5351 5351 5356 5363 5362 5366 5368 5372 5383 5392 5402 5412
5517 5508 5501 5493 5488 5483 5477 5469 5459 5449 5442 5434 5424 5413 5402 5397 5393 5388 5382 5379 5370 5365 5364 5360 5355 5352 5349 5347 5345 5344 5344 5342 5346 5348 5356 5359 5360 5360 5363 5368 5378 5388 5399
5501 5494 5489 5485 5479 5471 5461 5452 5444 5436 5428 5418 5409 5401 5394 5387 5383 5379 5374 5369 5363 5361 5358 5358 5355 5353 5349 5347 5345 5342 5340 5338 5336 5339 5347 5352 5353 5354 5355 5362 5370 5378 5385
5489 5485 5479 5471 5464 5455 5446 5438 5432 5423 5413 5404 5398 5391 5385 5378 5376 5373 5369 5363 5359 5356 5351 5350 5348 5348 5344 5341 5340 5339 5337 5335 5333 5333 5337 5345 5347 5348 5351 5358 5365 5371 5372
5480 5470 5462 5454 5448 5439 5431 5423 5417 5408 5400 5395 5389 5381 5377 5374 5368 5364 5363 5360 5357 5351 5347 5343 5339 5338 5334 5329 5327 5330 5330 5329 5328 5329 5332 5337 5339 5343 5347 5352 5359 5362 5363
5461 5456 5451 5442 5435 5425 5415 5409 5403 5398 5391 5384 5379 5374 5369 5364 5360 5357 5354 5351 5351 5346 5344 5339 5331 5326 5321 5318 5313 5314 5319 5320 5320 5319 5322 5327 5332 5336 5342 5348 5355 5357 5350
5447 5442 5437 5427 5417 5409 5401 5394 5389 5384 5379 5375 5371 5365 5359 5356 5355 5351 5347 5343 5340 5338 5336 5334 5326 5319 5314 5310 5307 5307 5309 5310 5309 5311 5315 5319 5324 5330 5336 5343 5348 5348 5346
5432 5425 5418 5408 5402 5396 5388 5381 5378 5374 5370 5365 5362 5360 5355 5350 5347 5346 5341 5337 5331 5327 5328 5326 5321 5314 5309 5305 5302 5301 5301 5302 5303 5307 5311 5315 5321 5326 5331 5335 5336 5336 5334
5415 5407 5399 5392 5386 5381 5375 5372 5366 5362 5358 5357 5354 5353 5351 5347 5341 5339 5335 5332 5327 5323 5321 5320 5316 5311 5306 5302 5301 5300 5300 5300 5301 5302 5306 5309 5313 5316 5320 5325 5324 5323 5322
5398 5388 5385 5376 5371 5368 5364 5358 5350 5344 5345 5343 5342 5341 5341 5339 5335 5332 5329 5328 5326 5323 5321 5318 5313 5308 5303 5300 5299 5298 5296 5297 5299 5301 5303 5304 5306 5309 5312 5313 5313 5312 5310
5386 5378 5370 5363 5358 5355 5349 5343 5338 5332 5330 5332 5331 5329 5328 5329 5323 5321 5319 5319 5319 5319 5319 5317 5312 5306 5300 5300 5299 5297 5295 5295 5298 5299 5299 5299 5300 5303 5303 5304 5305 5306 5307
5372 5363 5357 5351 5342 5337 5333 5331 5329 5330 5326 5321 5320 5318 5317 5312 5309 5309 5306 5308 5311 5315 5315 5313 5309 5301 5297 5298 5297 5293 5293 5294 5295 5296 5296 5297 5298 5298 5297 5297 5298 5301 5301
5358 5354 5345 5340 5331 5324 5318 5317 5318 5319 5315 5312 5310 5308 5306 5303 5300 5300 5300 5300 5303 5306 5307 5306 5302 5294 5293 5295 5294 5292 5292 5291 5291 5293 5295 5296 5295 5294 5293 5292 5293 5295 5296
5345 5341 5332 5325 5318 5313 5308 5306 5306 5308 5307 5307 5303 5298 5299 5297 5295 5295 5294 5293 5294 5297 5297 5296 5293 5289 5288 5290 5292 5291 5290 5289 5290 5292 5294 5295 5293 5292 5291 5292 5292 5293 5293
5332 5325 5321 5316 5311 5307 5303 5298 5294 5293 5291 5291 5290 5292 5290 5291 5291 5290 5288 5286 5287 5290 5292 5290 5288 5286 5285 5287 5290 5290 5289 5288 5288 5291 5293 5293 5291 5291 5289 5289 5289 5289 5289
5324 5319 5314 5311 5307 5299 5292 5288 5284 5279 5283 5283 5280 5280 5282 5283 5286 5286 5284 5282 5283 5285 5288 5286 5287 5284 5285 5285 5287 5288 5287 5286 5285 5289 5290 5289 5289 5288 5286 5285 5285 5283 5281
5320 5315 5309 5304 5298 5293 5286 5280 5276 5271 5273 5271 5270 5272 5272 5274 5279 5280 5277 5276 5280 5281 5282 5283 5283 5282 5283 5284 5285 5285 5285 5284 5283 5285 5287 5286 5285 5283 5281 5280 5278 5275 5273
5311 5306 5299 5296 5290 5282 5279 5272 5267 5263 5262 5261 5262 5263 5264 5268 5271 5273 5272 5272 5274 5276 5277 5278 5280 5280 5281 5282 5283 5283 5283 5282 5281 5283 5282 5282 5280 5278 5276 5274 5271 5268 5265
5300 5294 5288 5284 5281 5274 5268 5263 5255 5251 5251 5250 5250 5253 5256 5259 5262 5264 5267 5269 5270 5271 5274 5275 5276 5277 5278 5278 5280 5281 5281 5281 5280 5280 5279 5277 5275 5273 5271 5269 5265 5263 5260
5288 5284 5281 5279 5271 5263 5256 5249 5243 5240 5240 5239 5239 5241 5244 5248 5251 5255 5258 5264 5266 5268 5270 5271 5273 5273 5274 5275 5276 5277 5278 5278 5277 5276 5276 5274 5271 5268 5266 5264 5261 5256 5252
5278 5276 5271 5266 5257 5248 5240 5235 5231 5227 5226 5226 5227 5233 5235 5236 5239 5245 5249 5254 5261 5263 5266 5268 5269 5269 5270 5270 5271 5273 5274 5273 5273 5271 5271 5270 5267 5264 5261 5258 5254 5249 5243
5261 5259 5253 5244 5239 5233 5228 5222 5217 5214 5212 5214 5215 5219 5220 5222 5226 5232 5239 5243 5249 5256 5260 5263 5264 5265 5266 5267 5267 5268 5269 5269 5268 5267 5266 5265 5262 5258 5255 5252 5248 5243 5238